Regional Weather Roundup
Issued by NWS Sioux Falls, SD

Home | Current Version | Previous Version | Text Only | Print | Product List | Glossary Off
Versions: 1 2 3 4 5 6 7 8 9 10 11 12 13 14 15 16 17 18 19 20 21 22 23 24 25 26 27 28 29 30 31 32 33 34 35 36 37 38 39 40 41 42 43 44 45 46 47 48 49 50

000
ASUS43 KFSD 271010
RWRFSD

WEATHER ROUNDUP FOR SE SOUTH DAKOTA/SW MINNESOTA/NW IOWA
NATIONAL WEATHER SERVICE SIOUX FALLS SD
500 AM CDT FRI MAR 27 2015

NOTE: "FAIR" INDICATES FEW OR NO CLOUDS BELOW 12,000 FEET WITH NO
SIGNIFICANT WEATHER AND OR OBSTRUCTIONS TO VISIBILITY.


SDZ038>040-050-052>070-271100-
SOUTHEAST SOUTH DAKOTA

CITY           SKY/WX    TMP DP  RH WIND       PRES   REMARKS
CHAMBERLAIN    CLOUDY    22  17  81 SE6       30.26S WCI  14
HURON          PTCLDY    12   8  84 CALM      30.28F
MADISON        FAIR      12  12 100 N6        30.24S WCI   3
MITCHELL       CLEAR     15  11  83 W5        30.30S WCI   8
SIOUX FALLS    PTCLDY    15  10  80 CALM      30.25F
WINNER         CLOUDY    28  20  71 SE9       30.23S WCI  19
YANKTON        CLEAR     21  12  68 NW5       30.28F WCI  15
$$

MNZ071-072-080-081-089-090-097-098-271100-
SOUTHWEST MINNESOTA

CITY           SKY/WX    TMP DP  RH WIND       PRES   REMARKS
FAIRMONT       CLEAR     19  12  73 NW7       30.21S WCI  10
JACKSON        CLEAR     19  12  73 N5        30.22S WCI  13
LUVERNE        CLEAR     21  14  73 N6        30.25S WCI  14
MARSHALL       CLEAR     16   9  73 NW8       30.26S WCI   5
MONTEVIDEO     FAIR      16  10  79 N5        30.28S WCI   9
PIPESTONE      CLEAR     18  12  79 CALM      30.22F
REDWOOD FALLS  CLEAR     21   8  57 N8        30.26S WCI  11
TRACY          CLEAR     18  14  84 NW6       30.25S WCI  10
WINDOM         CLEAR     14  10  85 NW7       30.23S WCI   4
WORTHINGTON    CLEAR     14   9  79 N7        30.23S WCI   4
$$

IAZ001>003-012>014-020>022-031-032-NEZ013-014-SDZ071-271100-
NORTHWEST IOWA

CITY           SKY/WX    TMP DP  RH WIND       PRES   REMARKS
CHEROKEE       CLEAR     20  16  83 N6        30.23F WCI  13
DENISON        CLEAR     21  18  86 N7        30.21S WCI  13
ESTHERVILLE    CLEAR     19  13  77 N9        30.21F WCI   8
LE MARS        CLEAR     19  14  79 CALM      30.26S
ORANGE CITY    CLEAR     19  12  73 N5        30.23S WCI  13
SHELDON        CLEAR     16  12  86 N6        30.23S WCI   7
SIOUX CITY     CLEAR     21  13  71 N8        30.26F WCI  11
SPENCER        CLEAR     20  14  77 N12       30.22F WCI   8
STORM LAKE     FAIR      19  14  79 N12       30.22S WCI   7
$$

ABBREVIATIONS USED IN REMARKS
   TC - TEMPERATURE IN CELSIUS
  WCI - WIND CHILL INDEX
   HX - HEAT INDEX
  VSB - VISIBILITY




USA.gov is the U.S. government's official web portal to all federal, state and local government web resources and services.